Knoxville, IA

2:35 AM CST on November 24, 2017 (GMT -0600)
Knoxville Municipal

Weather History for KOXV - March, 2014

Change the Weather History Date:

Tuesday, March 25, 2014

  Actual Average Record
Temperature  
Mean Temperature 26 °F -  
Max Temperature 32 °F 51 °F 82 °F (2007)
Min Temperature 21 °F 32 °F 5 °F (1965)
Degree Days  
Heating Degree Days 38    
Moisture  
Dew Point 11 °F    
Average Humidity 56    
Maximum Humidity 86    
Minimum Humidity 30    
Precipitation  
Precipitation 0.00 in - - ()
Sea Level Pressure  
Sea Level Pressure 30.24 in    
Wind  
Wind Speed 11 mph (NW)    
Max Wind Speed 23 mph    
Max Gust Speed 31 mph    
Visibility 10 miles    
Events Snow    
Averages and records for this station are not official NWS values.
T = Trace of Precipitation, MM = Missing Value Source: NWS Daily Summary

Daily Weather History Graph

Daily Weather History Graph

Search for Another Location

Airport or City:

Trip Planner

Search our weather history database for the weather conditions in past years. The results will help you decide how hot, cold, wet, or windy it might be!

Date:

Astronomy

Mar. 25, 2014 Rise Set
Actual Time 7:07 AM CDT 7:30 PM CDT
Civil Twilight 6:39 AM CDT 7:57 PM CDT
Nautical Twilight 6:07 AM CDT 8:30 PM CDT
Astronomical Twilight 5:33 AM CDT 9:03 PM CDT
Moon 3:32 AM CDT (3/25) 1:58 PM CDT (3/25)
Length of Visible Light 13h 18m
Length of Day
12h 22m
Waning Crescent, 32% of the Moon is Illuminated
Mar 25
Waning Crescent
Mar 30
New
Apr 7
First Quarter
Apr 15
Full
Apr 22
Last Quarter

Hourly Weather History & Observations

Time (CDT) Temp. Windchill Dew Point Humidity Pressure Visibility Wind Dir Wind Speed Gust Speed Precip Events Conditions
12:15 AM 24.8 °F 16.9 °F 21.2 °F 86% 30.17 in 10.0 mi NW 6.9 mph - N/A   Clear
12:35 AM 24.8 °F 16.9 °F 21.2 °F 86% 30.17 in 10.0 mi NW 6.9 mph - N/A   Partly Cloudy
12:55 AM 24.8 °F 16.9 °F 21.2 °F 86% 30.17 in 10.0 mi NW 6.9 mph - N/A   Mostly Cloudy
1:15 AM 24.8 °F 16.1 °F 19.4 °F 80% 30.17 in 10.0 mi NW 8.1 mph - N/A   Mostly Cloudy
1:35 AM 24.8 °F 16.1 °F 19.4 °F 80% 30.17 in 10.0 mi NW 8.1 mph - N/A   Scattered Clouds
1:55 AM 24.8 °F 16.1 °F 19.4 °F 80% 30.17 in 10.0 mi NW 8.1 mph - N/A   Mostly Cloudy
2:15 AM 24.8 °F 16.1 °F 17.6 °F 74% 30.18 in 10.0 mi NW 8.1 mph - N/A   Mostly Cloudy
2:35 AM 24.8 °F 16.9 °F 17.6 °F 74% 30.18 in 10.0 mi WNW 6.9 mph - N/A   Overcast
2:55 AM 23.0 °F 13.9 °F 17.6 °F 80% 30.18 in 10.0 mi WNW 8.1 mph - N/A   Mostly Cloudy
3:15 AM 23.0 °F 14.7 °F 15.8 °F 74% 30.18 in 10.0 mi WNW 6.9 mph - N/A   Scattered Clouds
3:35 AM 23.0 °F 14.7 °F 15.8 °F 74% 30.18 in 10.0 mi WNW 6.9 mph - N/A   Mostly Cloudy
3:55 AM 23.0 °F 13.9 °F 15.8 °F 74% 30.18 in 10.0 mi WNW 8.1 mph - N/A   Scattered Clouds
4:15 AM 23.0 °F 13.9 °F 15.8 °F 74% 30.18 in 10.0 mi WNW 8.1 mph - N/A   Clear
4:35 AM 23.0 °F 13.9 °F 15.8 °F 74% 30.17 in 10.0 mi WNW 8.1 mph - N/A   Clear
4:55 AM 23.0 °F 13.9 °F 15.8 °F 74% 30.18 in 10.0 mi WNW 8.1 mph - N/A   Clear
5:15 AM 23.0 °F 13.1 °F 15.8 °F 74% 30.19 in 10.0 mi WNW 9.2 mph - N/A   Clear
5:35 AM 23.0 °F 12.4 °F 15.8 °F 74% 30.19 in 10.0 mi WNW 10.4 mph - N/A   Clear
5:55 AM 23.0 °F 12.4 °F 17.6 °F 80% 30.20 in 10.0 mi NW 10.4 mph - N/A   Mostly Cloudy
6:15 AM 24.8 °F 13.4 °F 17.6 °F 74% 30.21 in 10.0 mi NW 12.7 mph 19.6 mph N/A   Overcast
6:35 AM 24.8 °F 12.9 °F 15.8 °F 69% 30.22 in 10.0 mi NW 13.8 mph 21.9 mph N/A   Overcast
6:55 AM 23.0 °F 10.6 °F 15.8 °F 74% 30.22 in 10.0 mi NW 13.8 mph - N/A   Overcast
7:15 AM 23.0 °F 9.6 °F 14.0 °F 68% 30.22 in 10.0 mi NW 16.1 mph - N/A   Scattered Clouds
7:35 AM 23.0 °F 10.1 °F 12.2 °F 63% 30.23 in 10.0 mi NW 15.0 mph 27.6 mph N/A   Clear
7:55 AM 23.0 °F 8.7 °F 12.2 °F 63% 30.24 in 10.0 mi NW 18.4 mph 25.3 mph N/A   Clear
8:15 AM 23.0 °F 8.0 °F 14.0 °F 68% 30.25 in 10.0 mi NNW 20.7 mph 28.8 mph N/A   Mostly Cloudy
8:35 AM 21.2 °F 6.4 °F 14.0 °F 74% 30.25 in 5.0 mi North 18.4 mph 26.5 mph N/A Snow Light Snow
8:55 AM 23.0 °F 9.2 °F 14.0 °F 68% 30.26 in 8.0 mi NNW 17.3 mph 26.5 mph N/A Snow Light Snow
9:15 AM 23.0 °F 8.0 °F 14.0 °F 68% 30.27 in 10.0 mi North 20.7 mph 27.6 mph N/A Snow Light Snow
9:35 AM 23.0 °F 8.3 °F 10.4 °F 59% 30.28 in 10.0 mi North 19.6 mph - N/A   Overcast
9:55 AM 23.0 °F 10.1 °F 12.2 °F 63% 30.30 in 10.0 mi North 15.0 mph 23.0 mph N/A   Overcast
10:15 AM 23.0 °F 9.2 °F 12.2 °F 63% 30.31 in 10.0 mi NNW 17.3 mph - N/A   Overcast
10:35 AM 23.0 °F 8.3 °F 10.4 °F 59% 30.32 in 10.0 mi NNW 19.6 mph - N/A   Overcast
10:55 AM 23.0 °F 8.3 °F 8.6 °F 54% 30.33 in 10.0 mi NNW 19.6 mph 25.3 mph N/A   Overcast
11:15 AM 23.0 °F 9.2 °F 10.4 °F 59% 30.33 in 10.0 mi NW 17.3 mph 24.2 mph N/A   Overcast
11:35 AM 26.6 °F 12.0 °F 8.6 °F 47% 30.33 in 10.0 mi NW 23.0 mph - N/A   Mostly Cloudy
11:55 AM 26.6 °F 12.7 °F 3.2 °F 37% 30.33 in 10.0 mi NNW 20.7 mph 31.1 mph N/A   Partly Cloudy
12:15 PM 24.8 °F 11.5 °F 3.2 °F 40% 30.33 in - NNW 17.3 mph 27.6 mph N/A   Clear
12:35 PM 26.6 °F 14.7 °F 6.8 °F 43% 30.33 in 10.0 mi NNW 15.0 mph 28.8 mph N/A   Scattered Clouds
12:55 PM 26.6 °F 14.3 °F 5.0 °F 40% 30.33 in 10.0 mi NW 16.1 mph 25.3 mph N/A   Mostly Cloudy
1:15 PM 28.4 °F 15.8 °F 6.8 °F 40% 30.32 in 10.0 mi NW 18.4 mph 24.2 mph N/A   Scattered Clouds
1:35 PM 28.4 °F 18.5 °F 6.8 °F 40% 30.32 in 10.0 mi NW 11.5 mph 24.2 mph N/A   Scattered Clouds
1:55 PM 28.4 °F 15.8 °F 6.8 °F 40% 30.30 in 10.0 mi NNW 18.4 mph 25.3 mph N/A   Mostly Cloudy
2:15 PM 28.4 °F 17.5 °F 5.0 °F 37% 30.30 in 10.0 mi NNW 13.8 mph 23.0 mph N/A   Scattered Clouds
2:35 PM 28.4 °F 18.5 °F 5.0 °F 37% 30.29 in 10.0 mi NW 11.5 mph 23.0 mph N/A   Scattered Clouds
2:55 PM 28.4 °F 17.5 °F 5.0 °F 37% 30.28 in 10.0 mi NNW 13.8 mph 21.9 mph N/A   Partly Cloudy
3:15 PM 30.2 °F 18.5 °F 3.2 °F 32% 30.28 in 10.0 mi NW 17.3 mph 23.0 mph N/A   Scattered Clouds
3:35 PM 30.2 °F 20.2 °F 5.0 °F 34% 30.27 in 10.0 mi NW 12.7 mph 20.7 mph N/A   Partly Cloudy
3:55 PM 30.2 °F 18.5 °F 3.2 °F 32% 30.27 in 10.0 mi NNW 17.3 mph 24.2 mph N/A   Clear
4:15 PM 30.2 °F 20.2 °F 3.2 °F 32% 30.27 in 10.0 mi NW 12.7 mph 20.7 mph N/A   Clear
4:35 PM 32.0 °F 22.5 °F 5.0 °F 32% 30.26 in 10.0 mi NW 12.7 mph 21.9 mph N/A   Clear
4:55 PM 32.0 °F 22.1 °F 5.0 °F 32% 30.26 in 10.0 mi West 13.8 mph 20.7 mph N/A   Partly Cloudy
5:15 PM 32.0 °F 23.6 °F 5.0 °F 32% 30.26 in 10.0 mi NW 10.4 mph 20.7 mph N/A   Partly Cloudy
5:35 PM 32.0 °F 22.5 °F 5.0 °F 32% 30.25 in 10.0 mi NW 12.7 mph - N/A   Partly Cloudy
5:55 PM 32.0 °F 24.2 °F 3.2 °F 30% 30.25 in 10.0 mi NNW 9.2 mph 16.1 mph N/A   Clear
6:15 PM 30.2 °F 21.9 °F 5.0 °F 34% 30.24 in 10.0 mi NW 9.2 mph - N/A   Clear
6:35 PM 30.2 °F 22.6 °F 5.0 °F 34% 30.24 in 10.0 mi NNW 8.1 mph 13.8 mph N/A   Clear
6:55 PM 30.2 °F 23.4 °F 5.0 °F 34% 30.23 in 10.0 mi NW 6.9 mph - N/A   Clear
10:00 PM 24.8 °F 17.9 °F 6.8 °F 46% 30.22 in - SE 5.8 mph - N/A   Unknown
10:15 PM 24.8 °F 19.1 °F 6.8 °F 46% 30.23 in 10.0 mi SSE 4.6 mph - N/A   Unknown
10:35 PM 24.8 °F 17.9 °F 6.8 °F 46% 30.22 in 10.0 mi SE 5.8 mph - N/A   Partly Cloudy
10:55 PM 23.0 °F 14.7 °F 6.8 °F 50% 30.23 in 10.0 mi SE 6.9 mph - N/A   Clear
11:15 PM 23.0 °F 14.7 °F 6.8 °F 50% 30.23 in 10.0 mi SE 6.9 mph - N/A   Clear
11:30 PM 23.0 °F 15.8 °F 6.8 °F 50% 30.23 in 10.0 mi SE 5.8 mph - N/A   Clear
11:55 PM 23.0 °F 15.8 °F 6.8 °F 50% 30.22 in 10.0 mi SE 5.8 mph - N/A   Unknown